Location: Goettingen
(51.5300°N, 9.9433°E)
Time: 15:57:50
(UTC+02:00)

ISS - Pass Details

Date: 22 May 2018
Orbit: 402 x 407 km, 51.6° (Epoch: 23 May)

Event Time Altitude Azimuth Distance (km) Brightness Sun altitude
Rises 22:59:03 0° 238° (WSW) 2,314 0.0 -11.9°
Reaches altitude 10° 23:01:09 10° 232° (SW) 1,456 -1.1 -12.1°
Maximum altitude 23:04:18 47° 157° (SSE) 543 -3.6 -12.3°
Drops below altitude 10° 23:07:28 10° 82° (E) 1,460 -1.2 -12.6°
Sets 23:09:35 0° 77° (ENE) 2,321 -0.2 -12.8°
